EHI
0 0 0 0 0 0 0 0 0 0 0 0 0 0 0 0 0 0 0 0 1 2 2 3 3 2 1 0 0 0 0 0 0 0 0 0 0 0 0 0 0 0 0
0 0 0 0 0 0 0 0 0 0 0 0 0 0 0 0 0 0 0 0 0 1 1 2 3 3 2 1 1 0 0 0 0 0 0 0 0 0 0 0 0 0 0
1 0 0 0 0 0 0 0 0 0 0 0 0 0 0 0 0 0 0 0 0 0 0 1 3 4 3 3 2 1 1 1 0 0 0 0 0 0 0 0 0 0 0
3 2 1 1 0 0 0 0 0 0 0 0 0 0 0 0 0 0 0 0 0 0 0 0 1 2 3 2 2 2 2 2 1 1 0 0 0 0 0 0 0 0 0
5 4 4 2 1 1 0 0 0 0 0 0 0 0 0 0 0 0 0 0 0 0 0 0 0 1 1 1 1 1 2 3 2 2 1 1 0 0 0 0 0 0 0
7 7 6 4 3 2 1 0 0 0 0 0 0 0 0 0 0 0 0 0 0 0 0 0 0 0 0 0 0 0 1 2 2 3 2 2 1 0 0 0 0 0 0
9 9 8 7 6 5 3 2 0 0 0 0 0 0 0 0 0 0 0 0 0 0 0 0 0 0 0 0 0 0 0 1 3 4 5 3 2 0 0 0 0 0 0
10 10 9 9 9 8 6 5 3 2 1 0 0 0 0 0 0 0 0 0 0 0 0 0 0 0 0 0 0 0 0 2 4 6 7 6 3 1 1 0 0 0 0
8 8 8 9 9 8 7 7 6 5 3 1 1 0 0 0 0 0 0 0 0 0 0 0 0 0 0 0 0 0 0 1 3 5 7 7 5 3 2 1 1 0 0
5 6 6 7 7 7 7 7 7 6 5 3 1 0 0 0 0 0 0 0 0 0 0 0 0 0 0 0 0 0 0 0 1 2 4 5 5 5 5 4 3 1 0
3 4 5 4 4 5 6 6 5 4 3 2 1 0 0 0 0 0 0 1 1 0 0 0 0 0 0 0 0 0 0 0 0 0 1 2 3 5 7 7 6 3 2
1 2 3 2 2 3 4 3 3 2 1 0 0 0 0 0 0 0 1 2 2 1 0 0 0 0 0 0 0 0 0 0 0 0 0 0 1 2 4 6 6 5 4
1 0 1 1 2 2 2 1 1 0 0 0 0 0 0 0 0 0 1 2 2 2 1 0 0 0 0 0 0 0 0 0 0 0 0 0 0 0 1 2 3 3 4
1 0 0 1 1 1 1 0 0 0 0 0 0 0 0 0 0 1 2 2 1 2 2 1 0 0 0 0 0 0 0 0 0 0 0 0 0 0 0 0 0 1 1
2 1 0 0 0 0 0 0 0 0 0 0 0 0 0 0 0 1 2 2 1 1 2 2 1 0 0 0 0 0 0 0 0 0 0 0 0 0 0 0 0 0 0
3 2 0 0 0 0 0 0 0 0 0 0 0 0 0 0 0 0 1 2 2 2 3 2 2 1 0 0 0 0 0 0 0 0 0 0 0 0 0 0 0 0 0
5 3 1 0 0 0 0 0 0 0 0 0 0 0 0 0 0 0 1 2 3 3 3 3 3 3 1 0 0 0 0 0 0 0 0 0 0 0 0 0 0 0 0
7 5 2 1 0 0 0 0 0 0 0 0 0 0 0 0 0 0 1 3 3 3 3 2 3 3 2 1 0 0 0 0 0 0 0 0 0 0 0 0 0 0 0
8 7 4 3 2 1 0 1 0 0 1 2 1 0 0 0 0 1 2 3 3 3 3 3 3 3 2 1 0 0 0 0 0 0 0 0 0 0 0 0 0 0 0
8 7 5 4 2 1 0 0 0 1 2 3 2 1 0 0 1 2 2 2 2 2 3 3 3 2 1 0 0 0 0 0 0 0 0 0 0 0 0 0 0 0 0
7 7 5 3 1 0 0 0 1 2 3 3 3 1 1 1 1 1 1 1 1 1 2 3 4 3 2 1 1 0 0 0 1 1 1 0 0 0 0 0 0 0 0
8 7 6 3 2 1 0 0 1 3 4 4 3 3 2 1 0 0 0 0 0 0 2 3 4 4 3 2 2 1 1 1 2 2 2 1 1 1 1 1 0 0 0
12 9 6 4 3 2 1 0 1 4 5 4 3 2 2 1 0 0 0 0 0 1 2 3 4 3 3 3 3 3 2 2 3 3 3 3 2 2 2 2 1 0 0
16 12 8 5 4 3 1 0 1 2 3 2 1 1 2 2 1 0 0 0 0 1 2 2 3 3 3 2 2 2 2 2 2 3 3 3 2 1 1 1 1 0 0
16 14 11 8 5 3 1 0 0 1 1 0 0 1 2 2 1 0 0 0 0 1 1 1 1 2 1 1 1 1 1 1 1 1 2 2 1 0 0 0 0 0 0
14 13 12 9 6 4 1 0 0 0 0 0 0 1 1 1 0 0 0 0 1 1 1 0 0 1 0 0 0 1 1 1 0 0 1 2 1 0 0 0 0 0 0
Wind_Speed
1 1 0 1 1 1 1 1 1 1 1 1 1 2 2 2 2 2 2 5 5 6 6 7 7 7 7 7 7 7 7 7 6 6 6 6 7 7 7 7 7 7 7
1 1 0 0 0 0 0 0 1 0 0 1 1 2 2 3 3 3 2 4 6 6 7 7 8 8 8 8 8 8 8 7 7 7 7 7 7 7 7 8 8 7 7
2 2 1 1 1 0 1 1 1 1 0 0 0 1 2 3 3 3 3 3 3 6 8 8 8 9 9 8 9 9 9 8 8 8 8 8 7 7 7 8 8 8 8
3 2 2 1 1 1 1 1 0 1 0 0 1 1 2 2 4 4 3 3 3 3 6 9 9 9 9 9 9 9 9 9 9 9 9 9 9 8 8 8 8 8 8
3 3 2 1 1 1 1 1 1 1 1 1 1 2 2 2 3 4 4 5 5 4 4 6 9 10 11 11 10 10 10 10 10 10 10 10 10 10 9 9 9 9 9
4 3 2 2 2 1 1 1 1 1 1 1 1 1 2 3 3 4 5 5 5 6 6 6 5 6 10 11 11 11 11 11 11 12 12 12 12 11 10 10 10 10 10
4 3 2 2 2 2 2 2 1 1 0 0 1 1 2 2 3 4 4 4 5 6 6 6 5 5 5 9 10 11 12 12 11 12 12 12 12 12 12 12 11 11 11
3 3 3 3 2 2 1 2 1 1 0 1 1 1 2 3 2 2 3 4 5 4 6 7 6 6 6 4 6 11 12 12 12 12 12 12 13 12 12 13 13 12 12
3 3 3 3 3 3 2 2 2 3 2 1 1 2 1 2 3 2 2 3 3 4 5 5 7 7 7 6 6 9 12 12 12 13 12 12 12 12 12 13 13 13 13
3 4 4 4 3 2 3 3 3 2 3 2 1 1 2 2 1 2 2 2 2 3 4 4 5 6 6 5 6 8 10 11 12 13 13 13 12 12 12 13 13 13 13
2 3 4 3 3 3 3 3 2 3 3 3 2 2 2 1 2 2 3 3 2 2 3 3 3 4 5 5 5 7 9 10 11 12 12 12 13 12 12 13 14 13 13
2 3 3 3 3 3 3 3 3 4 3 3 2 2 2 2 2 2 3 3 3 2 2 2 3 3 3 4 6 7 8 9 9 10 10 11 11 11 11 11 12 12 12
2 3 3 3 3 3 4 3 3 3 3 3 3 3 3 3 2 2 2 2 2 2 2 1 2 2 2 2 4 6 6 6 7 8 8 9 9 9 10 10 11 11 12
4 3 4 4 4 4 4 3 3 3 3 3 4 3 3 3 3 3 3 2 2 2 2 3 1 2 2 2 3 4 3 4 5 5 6 7 8 8 8 9 9 9 9
3 4 4 4 4 4 3 3 3 3 3 3 3 3 3 2 2 2 2 3 3 2 3 2 2 2 2 2 2 2 2 2 3 3 4 5 7 7 8 8 8 8 8
3 3 3 3 3 3 3 3 3 3 2 2 2 2 2 2 1 1 2 2 3 3 3 2 2 2 3 3 2 2 2 2 2 3 3 4 5 6 6 7 7 7 8
3 4 3 3 2 2 2 2 2 2 2 2 2 2 2 2 1 1 1 1 2 2 3 3 2 2 2 2 3 2 2 1 1 2 2 3 4 4 4 5 5 6 6
3 3 3 2 2 2 2 2 2 2 2 2 2 2 2 1 1 1 1 1 1 2 2 3 2 2 2 2 2 2 2 1 1 2 1 1 2 2 3 3 3 3 4
3 3 3 3 2 2 2 2 2 1 1 1 1 1 1 0 1 1 0 0 1 0 1 2 2 1 1 2 2 2 2 2 2 2 1 1 1 1 1 1 2 2 2
4 3 3 2 2 2 2 2 2 1 1 1 1 1 1 0 1 1 0 1 0 0 0 1 1 1 1 2 1 2 2 2 2 3 3 2 2 1 1 1 1 1 2
4 3 3 2 2 2 2 3 2 2 1 1 2 1 1 2 1 0 1 1 1 0 0 0 1 1 2 2 2 2 2 2 2 2 2 2 2 1 1 2 1 1 0
3 3 3 3 3 1 2 4 3 2 2 2 2 2 2 3 3 3 3 2 1 1 1 0 1 1 2 2 2 2 2 2 2 2 1 2 2 2 2 2 3 3 3
3 3 3 3 3 2 3 4 4 3 3 2 2 2 2 3 3 3 4 5 4 3 1 1 1 2 2 2 1 2 1 2 2 2 1 2 2 2 2 3 4 3 3
4 3 3 3 2 2 4 4 4 3 3 3 3 3 3 3 3 2 3 3 3 4 3 1 1 2 2 2 1 2 2 1 1 1 1 2 2 2 2 2 4 4 4
4 4 3 3 3 3 4 5 5 3 3 4 4 4 3 3 5 4 4 4 4 4 5 5 5 4 5 5 3 1 1 1 1 2 2 1 2 2 2 1 2 3 3
4 4 4 4 4 3 4 6 5 3 3 3 3 4 6 5 5 5 4 4 4 3 3 4 5 6 5 6 6 3 1 1 1 2 2 2 2 2 2 1 2 2 2
Wind_Direction
124 103 46 36 34 62 76 74 75 67 74 103 152 164 169 169 178 179 187 190 184 184 182 179 179 178 176 176 176 177 179 178 178 175 178 180 179 178 178 179 177 169 168
159 145 130 1 334 86 96 102 119 82 58 130 179 182 182 187 198 198 199 204 202 199 199 197 195 193 193 192 191 193 192 191 189 188 190 193 192 189 190 189 187 183 182
175 165 169 202 228 141 111 79 54 67 120 134 186 198 191 196 205 212 209 207 213 217 215 214 212 208 207 206 203 203 203 202 199 199 200 200 197 195 197 197 196 193 191
175 168 181 203 189 143 132 132 114 78 62 134 232 241 218 212 219 221 219 216 216 224 227 226 225 223 221 220 217 214 212 212 209 208 207 206 205 203 203 203 202 198 197
177 175 189 205 172 156 169 188 149 153 152 231 247 250 234 228 229 228 226 225 225 228 230 237 235 233 232 230 228 226 224 221 217 215 215 214 214 212 210 210 207 205 206
173 174 185 197 169 158 175 171 174 141 156 209 261 276 265 248 236 232 232 230 229 231 231 235 238 242 240 239 237 234 233 231 225 221 221 220 220 217 215 214 212 212 213
177 176 185 187 182 187 194 177 167 137 125 140 69 332 313 270 247 239 234 233 236 234 232 233 232 235 243 242 241 239 241 241 235 229 226 224 223 220 217 217 216 217 218
186 187 190 196 191 185 180 181 165 146 151 138 143 83 336 333 307 253 236 232 237 236 237 236 232 231 236 238 237 237 240 242 242 237 232 228 226 223 221 221 220 220 221
193 196 195 195 196 190 199 208 189 179 195 203 169 155 164 256 299 300 259 243 239 233 240 240 236 235 232 230 237 239 238 237 240 240 237 233 228 224 224 225 226 226 225
202 200 200 200 203 201 208 217 202 189 182 205 204 206 199 185 218 304 309 284 256 243 247 244 241 238 234 232 232 236 237 235 236 238 238 237 233 227 224 226 230 230 227
222 216 207 202 207 213 217 215 204 198 196 199 196 188 191 199 207 216 281 309 306 268 254 249 244 240 232 229 232 239 239 235 234 236 239 239 237 229 223 226 230 233 232
237 233 219 210 210 217 224 219 216 213 212 211 207 191 182 189 201 201 239 272 288 290 280 262 252 249 243 238 243 247 239 236 234 234 236 236 233 230 227 229 231 235 237
229 231 224 218 217 219 225 222 219 226 216 214 213 212 211 218 197 191 212 252 270 283 292 282 260 257 253 243 253 256 248 239 233 232 231 230 230 230 227 228 234 237 238
225 221 217 221 224 222 224 217 224 232 221 222 226 220 222 229 215 206 202 208 267 285 288 285 306 281 275 260 264 251 254 240 236 233 231 231 231 232 232 230 232 235 238
221 214 214 220 228 223 219 213 227 235 225 228 231 227 233 239 226 225 219 210 214 256 279 284 295 317 302 274 275 259 257 257 243 239 232 230 232 232 232 232 232 233 236
212 204 209 215 224 227 223 215 230 238 222 238 230 225 237 240 233 228 227 226 224 225 256 284 275 306 317 316 316 279 271 278 267 261 253 243 238 237 235 236 236 236 236
202 206 206 207 214 219 209 200 220 228 225 248 248 227 242 230 231 241 237 232 230 214 239 281 288 309 315 316 322 313 299 285 300 283 272 263 251 244 239 235 237 240 238
191 193 182 186 201 200 185 187 215 223 218 238 254 244 258 232 213 245 235 235 226 214 220 266 301 311 300 314 322 329 334 333 325 355 326 295 267 248 240 232 233 238 241
176 176 169 177 190 177 162 171 179 200 205 237 261 241 257 207 237 243 206 220 242 218 215 237 289 313 308 337 338 342 343 337 342 360 354 350 337 284 255 237 227 222 225
169 170 174 179 176 156 149 144 140 142 122 72 25 357 298 230 239 237 217 230 197 123 188 224 285 315 316 328 352 345 346 340 333 350 356 12 14 2 327 279 247 216 213
170 168 159 150 138 141 154 148 144 135 120 89 57 29 26 56 63 159 200 206 174 160 155 163 292 331 343 350 340 324 321 320 325 346 333 345 352 353 353 332 324 350 119
149 142 143 138 130 138 127 137 141 133 121 104 75 41 43 42 48 58 67 73 103 137 168 216 278 297 305 312 321 322 318 319 317 343 323 331 358 352 353 15 36 61 74
135 123 120 126 129 120 120 118 117 116 107 96 82 59 49 38 40 60 61 59 49 46 80 198 249 280 288 297 300 304 295 285 286 320 309 318 337 334 358 21 30 48 63
130 123 119 117 111 97 103 102 100 96 87 77 69 67 63 37 34 62 74 57 42 31 28 31 357 323 329 319 280 260 259 275 300 4 355 316 327 325 344 359 28 43 49
119 116 114 113 106 85 90 99 99 92 84 69 58 55 55 50 35 60 82 71 50 37 44 49 45 37 29 22 18 35 20 1 338 350 3 333 320 306 305 327 9 29 30
112 108 98 93 100 97 95 102 106 106 94 77 61 51 46 46 44 59 79 76 58 24 23 31 31 26 28 32 38 43 20 37 4 346 1 344 327 329 317 328 348 350 357